Location: McCall
(45.0000°N, 116.0000°W)
Time: 04:21:29
(UTC-06:00)

Saudisat 1A - Visible Passes

Search period start: 30 September 2014 00:00
Search period end: 10 October 2014 00:00
Orbit: 599 x 607 km, 64.6° (Epoch: 29 September)

Date Brightness Start Highest point End Pass type
(mag) Time Alt. Az. Time Alt. Az. Time Alt. Az.
30 Sep 10.5 21:47:16 10° N 21:48:37 12° NNE 21:48:37 12° NNE visible
01 Oct 10.3 21:58:50 10° N 22:00:26 16° N 22:00:26 16° N visible
02 Oct 10.2 22:10:40 10° NNW 22:12:15 18° N 22:12:15 18° N visible
03 Oct 10.3 20:45:01 10° NNE 20:46:09 11° NNE 20:47:16 10° NE visible
03 Oct 10.3 22:22:38 10° NNW 22:24:07 20° NNW 22:24:07 20° NNW visible
04 Oct 10.0 20:56:13 10° N 20:58:50 15° NNE 20:59:12 15° NE visible
04 Oct 10.5 22:34:43 10° NNW 22:36:00 19° NNW 22:36:00 19° NNW visible
05 Oct 9.6 21:07:55 10° NNW 21:11:07 22° NNE 21:11:07 22° NNE visible
05 Oct 10.8 22:46:58 10° NW 22:47:55 16° NW 22:47:55 16° NW visible
06 Oct 9.1 21:19:48 10° NNW 21:23:05 31° NNE 21:23:05 31° NNE visible
06 Oct 11.1 22:59:26 10° NW 22:59:53 12° NW 22:59:53 12° NW visible
07 Oct 10.1 19:53:39 10° N 19:55:39 13° NNE 19:57:39 10° ENE visible
07 Oct 8.8 21:31:49 10° NNW 21:35:06 43° N 21:35:06 43° N visible
08 Oct 9.7 20:05:10 10° N 20:08:16 18° NE 20:10:22 14° ENE visible
08 Oct 8.9 21:43:57 10° NW 21:47:10 47° NW 21:47:10 47° NW visible
09 Oct 9.2 20:16:57 10° NNW 20:20:45 27° NE 20:22:30 21° ENE visible
09 Oct 9.5 21:56:17 10° NW 21:59:19 36° WNW 21:59:19 36° WNW visible
